Location: Camp Creek
(33.9000°N, 111.8167°W)
Time: 04:54:30
(UTC-07:00)

Cosmos 1656 - Visible Passes

Search period start: 28 April 2015 00:00
Search period end: 08 May 2015 00:00
Orbit: 798 x 850 km, 71.1° (Epoch: 27 April)

Date Brightness Start Highest point End Pass type
(mag) Time Alt. Az. Time Alt. Az. Time Alt. Az.
28 Apr 5.9 01:03:15 21° NNE 01:03:15 21° NNE 01:05:05 10° NNE visible
29 Apr 6.0 00:43:07 20° NNE 00:43:07 20° NNE 00:44:44 10° NNE visible
29 Apr 6.2 02:24:32 10° NW 02:24:32 10° NW 02:24:58 10° NW visible
30 Apr 6.0 00:22:56 18° NNE 00:22:56 18° NNE 00:24:20 10° NNE visible
30 Apr 6.1 02:04:21 12° NW 02:04:21 12° NW 02:05:30 10° NNW visible
01 May 6.1 00:02:43 17° NNE 00:02:43 17° NNE 00:03:56 10° NNE visible
01 May 6.1 01:44:08 14° NW 01:44:08 14° NW 01:45:42 10° NNW visible
01 May 6.1 23:42:28 16° NNE 23:42:28 16° NNE 23:43:29 10° NNE visible
02 May 6.0 01:23:53 15° NNW 01:23:53 15° NNW 01:25:44 10° NNW visible
02 May 6.1 23:22:11 14° NE 23:22:11 14° NE 23:23:01 10° NNE visible
03 May 6.0 01:03:35 17° NNW 01:03:35 17° NNW 01:05:41 10° N visible
03 May 6.1 23:01:51 13° NE 23:01:51 13° NE 23:02:31 10° NE visible
04 May 5.9 00:43:15 19° NNW 00:43:15 19° NNW 00:45:34 10° N visible
04 May 6.1 22:41:28 12° NE 22:41:28 12° NE 22:41:58 10° NE visible
05 May 5.8 00:22:52 22° NNW 00:22:52 22° NNW 00:25:24 10° N visible
05 May 6.1 22:21:01 11° NE 22:21:01 11° NE 22:21:22 10° NE visible
06 May 5.6 00:02:25 25° NNW 00:02:25 25° NNW 00:05:12 10° N visible
06 May 6.0 22:00:31 11° NE 22:00:31 11° NE 22:00:43 10° NE visible
06 May 5.4 23:41:54 28° NNW 23:41:54 28° NNW 23:44:57 10° N visible
07 May 6.0 21:39:55 10° NE 21:39:55 10° NE 21:39:59 10° NE visible
07 May 5.2 23:21:18 33° NNW 23:21:18 33° NNW 23:24:41 10° N visible
